Station Historical Data
Daily Summary for February 1, 2012 Units:  English    Metric   Both
« Previous Day
Next Day »
Daily Weekly Monthly Yearly Custom
  High: Low: Average:
Temperature: 63.7 °F 52.5 °F 57.8 °F
Dew Point: 61.0 °F 47.5 °F 55.8 °F
Humidity: 95% 77% 93%
Wind Speed: 11.0mph 1.0mph 4.4mph
Wind Gust: 15.0mph - -
Wind- - SSE
Pressure: 30.16 in 30.00 in -
Precipitation: 1.52 in    
Historical Graphs
 
 
Tabular Data for February 1, 2012
Time Temperature Dew Point Pressure Wind Wind Speed Wind Gust Humidity Rainfall Rate (Hourly) Conditions
00:00 54.7 °F 47.6 °F 30.16 in SE 5.0 mph 8.0 mph 77% 0.00 in
00:01 54.6 °F 47.5 °F 30.16 in SE 7.0 mph 8.0 mph 77% 0.00 in
00:02 54.6 °F 47.5 °F 30.16 in SSE 7.0 mph 8.0 mph 77% 0.00 in
00:07 54.6 °F 47.9 °F 30.16 in SSE 7.0 mph 8.0 mph 78% 0.00 in
00:12 54.5 °F 47.8 °F 30.16 in SE 4.0 mph 9.0 mph 78% 0.00 in
00:17 54.3 °F 47.9 °F 30.16 in SE 7.0 mph 8.0 mph 79% 0.00 in
00:22 54.2 °F 48.2 °F 30.16 in SE 5.0 mph 10.0 mph 80% 0.00 in
00:27 54.0 °F 48.3 °F 30.16 in SE 5.0 mph 10.0 mph 81% 0.00 in
00:32 53.7 °F 48.7 °F 30.16 in SE 8.0 mph 9.0 mph 83% 0.00 in
00:37 53.3 °F 48.6 °F 30.16 in SSE 3.0 mph 6.0 mph 84% 0.06 in
00:42 53.0 °F 48.6 °F 30.16 in SSE 3.0 mph 9.0 mph 85% 0.06 in
00:47 52.9 °F 48.5 °F 30.15 in ESE 6.0 mph 9.0 mph 85% 0.05 in
00:52 52.8 °F 48.7 °F 30.15 in SSE 3.0 mph 5.0 mph 86% 0.00 in
00:57 52.6 °F 48.8 °F 30.15 in SSE 2.0 mph 3.0 mph 87% 0.00 in
01:03 52.5 °F 48.8 °F 30.15 in SE 4.0 mph 4.0 mph 87% 0.00 in
01:08 52.6 °F 48.8 °F 30.15 in SE 4.0 mph 6.0 mph 87% 0.00 in
01:13 52.7 °F 49.0 °F 30.15 in SE 7.0 mph 7.0 mph 87% 0.00 in
01:18 52.9 °F 48.8 °F 30.15 in SE 4.0 mph 5.0 mph 86% 0.00 in
01:23 53.0 °F 48.9 °F 30.15 in SSE 3.0 mph 5.0 mph 86% 0.00 in
01:28 53.0 °F 49.2 °F 30.15 in SE 6.0 mph 7.0 mph 87% 0.00 in
01:33 53.0 °F 49.2 °F 30.15 in SE 5.0 mph 7.0 mph 87% 0.00 in
01:38 52.8 °F 49.0 °F 30.15 in SSE 4.0 mph 5.0 mph 87% 0.00 in
01:43 52.8 °F 49.3 °F 30.15 in SSE 4.0 mph 5.0 mph 88% 0.00 in
01:48 52.7 °F 49.2 °F 30.15 in South 4.0 mph 4.0 mph 88% 0.00 in
01:53 52.8 °F 49.3 °F 30.15 in South 3.0 mph 5.0 mph 88% 0.00 in
01:58 53.0 °F 49.5 °F 30.15 in South 2.0 mph 6.0 mph 88% 0.00 in
02:03 53.2 °F 49.7 °F 30.15 in South 4.0 mph 5.0 mph 88% 0.00 in
02:08 53.2 °F 50.0 °F 30.15 in SSE 5.0 mph 6.0 mph 89% 0.00 in
02:13 53.5 °F 50.0 °F 30.15 in SSE 4.0 mph 8.0 mph 88% 0.00 in
02:18 53.6 °F 50.1 °F 30.15 in SE 5.0 mph 7.0 mph 88% 0.00 in
02:23 53.9 °F 50.4 °F 30.14 in SE 4.0 mph 8.0 mph 88% 0.00 in
02:28 54.1 °F 50.6 °F 30.15 in SE 7.0 mph 7.0 mph 88% 0.00 in
02:33 54.3 °F 50.8 °F 30.15 in SE 5.0 mph 7.0 mph 88% 0.00 in
02:38 54.3 °F 50.8 °F 30.14 in SSE 5.0 mph 6.0 mph 88% 0.00 in
02:43 54.3 °F 50.8 °F 30.14 in SSE 4.0 mph 5.0 mph 88% 0.00 in
02:48 54.3 °F 51.1 °F 30.14 in SE 5.0 mph 7.0 mph 89% 0.00 in
02:53 54.3 °F 51.1 °F 30.14 in SSE 4.0 mph 6.0 mph 89% 0.00 in
02:58 54.4 °F 51.2 °F 30.14 in SE 3.0 mph 5.0 mph 89% 0.00 in
03:03 54.5 °F 51.6 °F 30.14 in SSE 3.0 mph 7.0 mph 90% 0.00 in
03:08 54.6 °F 51.7 °F 30.14 in SSE 5.0 mph 7.0 mph 90% 0.00 in
03:13 54.7 °F 51.8 °F 30.14 in South 4.0 mph 7.0 mph 90% 0.00 in
03:18 54.7 °F 52.1 °F 30.13 in South 6.0 mph 7.0 mph 91% 0.00 in
03:23 54.8 °F 52.2 °F 30.13 in SE 5.0 mph 7.0 mph 91% 0.00 in
03:28 54.9 °F 52.3 °F 30.13 in SSE 3.0 mph 7.0 mph 91% 0.00 in
03:33 54.9 °F 52.3 °F 30.13 in SSE 4.0 mph 6.0 mph 91% 0.00 in
03:38 55.0 °F 52.4 °F 30.13 in SE 6.0 mph 6.0 mph 91% 0.00 in
03:43 55.1 °F 52.8 °F 30.13 in SSE 4.0 mph 7.0 mph 92% 0.00 in
03:48 55.2 °F 52.9 °F 30.13 in SE 6.0 mph 6.0 mph 92% 0.00 in
03:53 55.3 °F 53.0 °F 30.13 in SSE 2.0 mph 6.0 mph 92% 0.00 in
03:58 55.4 °F 53.1 °F 30.13 in SE 6.0 mph 7.0 mph 92% 0.00 in
04:03 55.5 °F 53.2 °F 30.12 in SSE 6.0 mph 9.0 mph 92% 0.00 in
04:08 55.7 °F 53.4 °F 30.13 in SE 4.0 mph 6.0 mph 92% 0.00 in
04:13 55.8 °F 53.5 °F 30.12 in SE 4.0 mph 6.0 mph 92% 0.00 in
04:18 55.8 °F 53.5 °F 30.13 in SSE 3.0 mph 5.0 mph 92% 0.00 in
04:23 55.9 °F 53.6 °F 30.13 in South 3.0 mph 5.0 mph 92% 0.00 in
04:28 55.9 °F 53.6 °F 30.12 in SSE 6.0 mph 6.0 mph 92% 0.00 in
04:34 55.9 °F 53.9 °F 30.12 in SE 5.0 mph 5.0 mph 93% 0.00 in
04:39 55.9 °F 53.9 °F 30.12 in SE 5.0 mph 6.0 mph 93% 0.00 in
04:44 55.9 °F 53.9 °F 30.12 in SSE 3.0 mph 5.0 mph 93% 0.00 in
04:49 56.0 °F 54.0 °F 30.12 in SSE 3.0 mph 4.0 mph 93% 0.00 in
04:54 56.1 °F 54.1 °F 30.12 in SSE 6.0 mph 6.0 mph 93% 0.00 in
04:59 56.1 °F 54.1 °F 30.12 in SE 8.0 mph 8.0 mph 93% 0.00 in
05:04 56.3 °F 54.3 °F 30.11 in SSE 5.0 mph 8.0 mph 93% 0.00 in
05:09 56.4 °F 54.4 °F 30.11 in SSE 4.0 mph 7.0 mph 93% 0.00 in
05:14 56.5 °F 54.8 °F 30.11 in SSE 5.0 mph 8.0 mph 94% 0.00 in
05:19 56.6 °F 54.9 °F 30.11 in South 5.0 mph 7.0 mph 94% 0.00 in
05:24 56.7 °F 55.0 °F 30.12 in SSE 4.0 mph 7.0 mph 94% 0.00 in
05:29 56.8 °F 55.1 °F 30.11 in South 3.0 mph 6.0 mph 94% 0.00 in
05:34 56.8 °F 55.1 °F 30.11 in SSE 2.0 mph 7.0 mph 94% 0.00 in
05:39 56.9 °F 55.2 °F 30.11 in SE 4.0 mph 6.0 mph 94% 0.00 in
05:44 57.0 °F 55.3 °F 30.11 in SSE 3.0 mph 8.0 mph 94% 0.00 in
05:49 57.1 °F 55.4 °F 30.11 in SSE 4.0 mph 6.0 mph 94% 0.00 in
05:54 57.2 °F 55.5 °F 30.11 in SSE 7.0 mph 7.0 mph 94% 0.00 in
05:59 57.3 °F 55.6 °F 30.11 in SSE 7.0 mph 7.0 mph 94% 0.00 in
06:04 57.4 °F 55.7 °F 30.11 in SSE 5.0 mph 7.0 mph 94% 0.00 in
06:09 57.3 °F 55.6 °F 30.11 in South 5.0 mph 8.0 mph 94% 0.00 in
06:14 57.3 °F 55.6 °F 30.11 in SE 5.0 mph 8.0 mph 94% 0.00 in
06:19 57.4 °F 55.7 °F 30.11 in SSE 8.0 mph 9.0 mph 94% 0.00 in
06:24 57.5 °F 55.8 °F 30.12 in SSE 4.0 mph 7.0 mph 94% 0.00 in
06:29 57.5 °F 55.8 °F 30.11 in SSE 4.0 mph 8.0 mph 94% 0.00 in
06:34 57.5 °F 55.8 °F 30.11 in South 5.0 mph 8.0 mph 94% 0.00 in
06:39 57.5 °F 55.8 °F 30.11 in SSE 6.0 mph 7.0 mph 94% 0.00 in
06:44 57.5 °F 55.8 °F 30.11 in SE 5.0 mph 9.0 mph 94% 0.00 in
06:49 57.5 °F 55.8 °F 30.11 in SSW 7.0 mph 11.0 mph 94% 0.00 in
06:54 57.6 °F 55.9 °F 30.11 in SE 4.0 mph 8.0 mph 94% 0.30 in
06:59 57.6 °F 55.9 °F 30.11 in SSE 7.0 mph 8.0 mph 94% 0.16 in
07:04 57.5 °F 56.1 °F 30.11 in SE 4.0 mph 7.0 mph 95% 0.07 in
07:09 57.5 °F 56.1 °F 30.11 in SE 7.0 mph 9.0 mph 95% 0.06 in
07:14 57.5 °F 56.1 °F 30.11 in SSE 6.0 mph 9.0 mph 95% 0.08 in
07:19 57.6 °F 56.2 °F 30.11 in SSE 7.0 mph 9.0 mph 95% 0.63 in
07:24 57.6 °F 56.2 °F 30.11 in SSE 6.0 mph 9.0 mph 95% 0.20 in
07:29 57.6 °F 56.2 °F 30.11 in SSW 4.0 mph 9.0 mph 95% 0.09 in
07:34 57.7 °F 56.3 °F 30.11 in SSE 3.0 mph 6.0 mph 95% 0.09 in
07:40 57.6 °F 56.2 °F 30.12 in SSW 3.0 mph 7.0 mph 95% 0.74 in
07:45 57.6 °F 56.2 °F 30.12 in SSE 3.0 mph 4.0 mph 95% 0.26 in
07:50 57.6 °F 56.2 °F 30.12 in West 1.0 mph 3.0 mph 95% 0.14 in
07:55 57.7 °F 56.3 °F 30.13 in WSW 4.0 mph 4.0 mph 95% 0.77 in
08:00 57.8 °F 56.4 °F 30.13 in SE 2.0 mph 6.0 mph 95% 0.31 in
08:05 57.8 °F 56.4 °F 30.13 in SSE 4.0 mph 6.0 mph 95% 0.76 in
08:11 57.7 °F 56.3 °F 30.12 in SSW 6.0 mph 6.0 mph 95% 0.45 in
08:16 57.7 °F 56.3 °F 30.12 in SE 5.0 mph 7.0 mph 95% 0.14 in
08:21 57.8 °F 56.4 °F 30.12 in SSE 4.0 mph 8.0 mph 95% 0.17 in
08:26 57.8 °F 56.4 °F 30.12 in SSE 4.0 mph 5.0 mph 95% 0.08 in
08:31 57.8 °F 56.4 °F 30.12 in South 5.0 mph 6.0 mph 95% 0.05 in
08:36 57.7 °F 56.3 °F 30.12 in SE 2.0 mph 4.0 mph 95% 0.00 in
08:41 57.6 °F 56.2 °F 30.12 in SE 3.0 mph 5.0 mph 95% 0.00 in
08:46 57.7 °F 56.3 °F 30.12 in SE 5.0 mph 7.0 mph 95% 0.00 in
08:51 57.9 °F 56.5 °F 30.12 in SE 4.0 mph 8.0 mph 95% 0.00 in
08:56 58.0 °F 56.6 °F 30.12 in SSE 7.0 mph 11.0 mph 95% 0.00 in
09:01 58.0 °F 56.6 °F 30.12 in SSE 9.0 mph 9.0 mph 95% 0.00 in
09:06 58.2 °F 56.8 °F 30.12 in South 8.0 mph 8.0 mph 95% 0.00 in
09:11 58.2 °F 56.8 °F 30.12 in SSE 4.0 mph 8.0 mph 95% 0.00 in
09:16 58.2 °F 56.8 °F 30.12 in SSE 3.0 mph 7.0 mph 95% 0.00 in
09:21 58.2 °F 56.8 °F 30.12 in SSE 3.0 mph 9.0 mph 95% 0.00 in
09:26 58.1 °F 56.7 °F 30.12 in SE 5.0 mph 7.0 mph 95% 0.35 in
09:31 58.1 °F 56.7 °F 30.12 in SSW 5.0 mph 6.0 mph 95% 0.15 in
09:36 58.0 °F 56.6 °F 30.12 in SSE 3.0 mph 4.0 mph 95% 0.09 in
09:41 58.0 °F 56.6 °F 30.12 in SSE 4.0 mph 6.0 mph 95% 0.08 in
09:46 57.9 °F 56.5 °F 30.11 in SSE 6.0 mph 7.0 mph 95% 0.06 in
09:51 57.9 °F 56.5 °F 30.11 in SSE 4.0 mph 6.0 mph 95% 0.17 in
09:56 57.9 °F 56.5 °F 30.11 in SSE 7.0 mph 9.0 mph 95% 0.07 in
10:01 57.9 °F 56.5 °F 30.11 in SE 5.0 mph 7.0 mph 95% 0.04 in
10:06 57.9 °F 56.5 °F 30.11 in SE 8.0 mph 8.0 mph 95% 0.00 in
10:12 57.8 °F 56.4 °F 30.11 in SSE 7.0 mph 8.0 mph 95% 0.00 in
10:17 57.8 °F 56.4 °F 30.11 in SSE 6.0 mph 7.0 mph 95% 0.00 in
10:22 57.8 °F 56.4 °F 30.11 in South 2.0 mph 6.0 mph 95% 0.00 in
10:27 57.7 °F 56.3 °F 30.11 in SE 7.0 mph 8.0 mph 95% 0.00 in
10:32 57.8 °F 56.4 °F 30.11 in SSE 6.0 mph 7.0 mph 95% 0.00 in
10:37 57.7 °F 56.3 °F 30.11 in South 6.0 mph 8.0 mph 95% 0.00 in
10:42 57.7 °F 56.3 °F 30.11 in South 2.0 mph 5.0 mph 95% 0.00 in
10:47 57.7 °F 56.3 °F 30.11 in SSW 2.0 mph 5.0 mph 95% 0.00 in
10:52 57.7 °F 56.3 °F 30.11 in SSE 6.0 mph 6.0 mph 95% 0.00 in
10:57 57.7 °F 56.3 °F 30.11 in SSE 4.0 mph 9.0 mph 95% 0.14 in
11:02 57.7 °F 56.3 °F 30.11 in SSE 3.0 mph 7.0 mph 95% 0.10 in
11:07 57.7 °F 56.3 °F 30.11 in South 4.0 mph 6.0 mph 95% 0.05 in
11:12 57.8 °F 56.4 °F 30.11 in SSW 4.0 mph 4.0 mph 95% 0.04 in
11:17 57.8 °F 56.4 °F 30.11 in SSE 4.0 mph 6.0 mph 95% 0.00 in
11:22 57.9 °F 56.5 °F 30.10 in South 3.0 mph 7.0 mph 95% 0.00 in
11:27 57.8 °F 56.4 °F 30.10 in SSW 4.0 mph 6.0 mph 95% 0.00 in
11:32 57.9 °F 56.5 °F 30.10 in South 3.0 mph 4.0 mph 95% 0.00 in
11:37 57.9 °F 56.5 °F 30.10 in South 2.0 mph 5.0 mph 95% 0.00 in
11:42 57.9 °F 56.5 °F 30.10 in SSE 4.0 mph 5.0 mph 95% 0.05 in
11:47 57.8 °F 56.4 °F 30.10 in SSE 1.0 mph 5.0 mph 95% 0.05 in
11:52 57.9 °F 56.5 °F 30.10 in SSE 3.0 mph 3.0 mph 95% 0.05 in
11:58 57.9 °F 56.5 °F 30.10 in SSE 3.0 mph 4.0 mph 95% 0.04 in
12:03 58.0 °F 56.6 °F 30.10 in South 4.0 mph 4.0 mph 95% 0.00 in
12:08 58.2 °F 56.8 °F 30.10 in South 3.0 mph 5.0 mph 95% 0.00 in
12:13 58.4 °F 57.0 °F 30.09 in SSE 4.0 mph 4.0 mph 95% 0.00 in
12:18 58.3 °F 56.9 °F 30.10 in SSW 4.0 mph 7.0 mph 95% 0.00 in
12:23 58.2 °F 56.8 °F 30.09 in SSE 2.0 mph 5.0 mph 95% 0.00 in
12:28 58.2 °F 56.8 °F 30.09 in SSE 3.0 mph 6.0 mph 95% 0.00 in
12:33 58.2 °F 56.8 °F 30.09 in SSE 5.0 mph 5.0 mph 95% 0.00 in
12:38 58.2 °F 56.8 °F 30.09 in SSE 3.0 mph 5.0 mph 95% 0.00 in
12:43 58.1 °F 56.7 °F 30.09 in SSE 3.0 mph 6.0 mph 95% 0.00 in
12:48 58.2 °F 56.8 °F 30.08 in South 3.0 mph 5.0 mph 95% 0.00 in
12:53 58.4 °F 57.0 °F 30.08 in South 2.0 mph 6.0 mph 95% 0.00 in
12:58 58.5 °F 57.1 °F 30.08 in SSW 5.0 mph 5.0 mph 95% 0.00 in
13:03 58.5 °F 57.1 °F 30.08 in South 5.0 mph 7.0 mph 95% 0.00 in
13:08 58.5 °F 57.1 °F 30.07 in SSE 3.0 mph 6.0 mph 95% 0.00 in
13:13 58.5 °F 57.1 °F 30.07 in SW 4.0 mph 6.0 mph 95% 0.00 in
13:18 58.6 °F 57.2 °F 30.07 in South 3.0 mph 5.0 mph 95% 0.00 in
13:23 58.7 °F 57.3 °F 30.07 in SSW 4.0 mph 6.0 mph 95% 0.00 in
13:28 58.8 °F 57.4 °F 30.07 in SSW 4.0 mph 5.0 mph 95% 0.00 in
13:33 59.0 °F 57.6 °F 30.06 in SSE 3.0 mph 6.0 mph 95% 0.00 in
13:38 59.2 °F 57.8 °F 30.06 in SW 2.0 mph 5.0 mph 95% 0.00 in
13:43 59.3 °F 57.9 °F 30.06 in South 4.0 mph 4.0 mph 95% 0.00 in
13:48 59.7 °F 58.3 °F 30.06 in SSW 1.0 mph 5.0 mph 95% 0.00 in
13:53 60.1 °F 58.7 °F 30.06 in South 2.0 mph 4.0 mph 95% 0.00 in
13:58 60.4 °F 59.0 °F 30.05 in SSW 3.0 mph 5.0 mph 95% 0.00 in
14:03 60.5 °F 59.1 °F 30.05 in SW 4.0 mph 6.0 mph 95% 0.00 in
14:08 60.6 °F 59.2 °F 30.05 in SSW 2.0 mph 6.0 mph 95% 0.00 in
14:13 60.8 °F 59.4 °F 30.05 in WSW 2.0 mph 4.0 mph 95% 0.00 in
14:18 60.9 °F 59.5 °F 30.05 in South 3.0 mph 6.0 mph 95% 0.00 in
14:23 60.9 °F 59.5 °F 30.05 in SSW 2.0 mph 6.0 mph 95% 0.00 in
14:28 61.1 °F 59.7 °F 30.05 in SW 2.0 mph 5.0 mph 95% 0.00 in
14:33 61.6 °F 60.2 °F 30.04 in SE 4.0 mph 6.0 mph 95% 0.00 in
14:38 61.8 °F 60.1 °F 30.05 in SSW 4.0 mph 6.0 mph 94% 0.00 in
14:43 62.1 °F 60.4 °F 30.04 in South 5.0 mph 6.0 mph 94% 0.00 in
14:48 62.3 °F 60.6 °F 30.04 in WSW 1.0 mph 5.0 mph 94% 0.00 in
14:53 62.4 °F 60.3 °F 30.04 in SE 6.0 mph 6.0 mph 93% 0.00 in
14:58 62.3 °F 60.2 °F 30.03 in SSE 6.0 mph 6.0 mph 93% 0.00 in
15:03 62.1 °F 60.1 °F 30.03 in SSE 7.0 mph 8.0 mph 93% 0.00 in
15:09 61.8 °F 60.1 °F 30.03 in SSE 8.0 mph 10.0 mph 94% 0.00 in
15:14 61.8 °F 60.1 °F 30.03 in ESE 5.0 mph 7.0 mph 94% 0.00 in
15:19 62.2 °F 60.5 °F 30.03 in SE 5.0 mph 8.0 mph 94% 0.00 in
15:24 62.3 °F 60.2 °F 30.03 in SE 7.0 mph 8.0 mph 93% 0.00 in
15:29 62.4 °F 60.3 °F 30.03 in SSE 5.0 mph 6.0 mph 93% 0.00 in
15:34 62.4 °F 60.3 °F 30.03 in ESE 5.0 mph 6.0 mph 93% 0.00 in
15:39 62.8 °F 60.8 °F 30.03 in SSE 3.0 mph 7.0 mph 93% 0.00 in
15:44 63.0 °F 60.6 °F 30.03 in SW 2.0 mph 6.0 mph 92% 0.00 in
15:49 63.2 °F 60.8 °F 30.03 in SSE 6.0 mph 6.0 mph 92% 0.00 in
15:54 63.2 °F 60.8 °F 30.03 in South 4.0 mph 6.0 mph 92% 0.00 in
15:59 63.2 °F 60.8 °F 30.03 in South 3.0 mph 5.0 mph 92% 0.00 in
16:04 63.2 °F 60.5 °F 30.03 in South 5.0 mph 5.0 mph 91% 0.00 in
16:09 63.3 °F 60.6 °F 30.03 in SSE 3.0 mph 4.0 mph 91% 0.00 in
16:14 63.7 °F 61.0 °F 30.02 in SSE 6.0 mph 6.0 mph 91% 0.00 in
16:19 63.5 °F 60.8 °F 30.02 in SSE 5.0 mph 7.0 mph 91% 0.00 in
16:24 63.1 °F 60.4 °F 30.02 in ESE 6.0 mph 7.0 mph 91% 0.00 in
16:29 62.7 °F 60.3 °F 30.02 in SE 3.0 mph 5.0 mph 92% 0.00 in
16:34 62.7 °F 60.3 °F 30.02 in SE 3.0 mph 5.0 mph 92% 0.00 in
16:39 62.8 °F 60.5 °F 30.01 in SSE 4.0 mph 7.0 mph 92% 0.00 in
16:44 62.7 °F 60.3 °F 30.01 in SSE 8.0 mph 8.0 mph 92% 0.00 in
16:49 62.4 °F 60.0 °F 30.01 in ESE 6.0 mph 9.0 mph 92% 0.00 in
16:54 62.3 °F 60.0 °F 30.01 in SE 4.0 mph 8.0 mph 92% 0.00 in
16:59 62.1 °F 59.8 °F 30.00 in SSE 7.0 mph 7.0 mph 92% 0.00 in
17:04 61.9 °F 59.5 °F 30.00 in ESE 4.0 mph 6.0 mph 92% 0.00 in
17:09 61.5 °F 59.5 °F 30.00 in SE 3.0 mph 7.0 mph 93% 0.00 in
17:14 61.3 °F 59.3 °F 30.00 in ESE 4.0 mph 5.0 mph 93% 0.00 in
17:19 61.2 °F 59.2 °F 30.00 in SE 3.0 mph 4.0 mph 93% 0.00 in
17:24 61.2 °F 59.2 °F 30.00 in SE 3.0 mph 5.0 mph 93% 0.00 in
17:30 61.2 °F 59.2 °F 30.00 in SE 4.0 mph 7.0 mph 93% 0.00 in
17:35 61.1 °F 59.1 °F 30.00 in SE 5.0 mph 7.0 mph 93% 0.00 in
17:40 60.9 °F 59.2 °F 30.00 in SE 7.0 mph 9.0 mph 94% 0.00 in
17:45 60.4 °F 58.7 °F 30.00 in ESE 8.0 mph 9.0 mph 94% 0.00 in
17:50 60.1 °F 58.4 °F 30.00 in SE 5.0 mph 7.0 mph 94% 0.00 in
17:55 59.8 °F 58.1 °F 30.00 in SE 4.0 mph 8.0 mph 94% 0.00 in
18:00 59.6 °F 58.2 °F 30.00 in SE 5.0 mph 7.0 mph 95% 0.00 in
18:05 59.4 °F 58.0 °F 30.00 in ESE 5.0 mph 8.0 mph 95% 0.00 in
18:10 59.2 °F 57.8 °F 30.01 in SE 4.0 mph 7.0 mph 95% 0.00 in
18:15 59.1 °F 57.7 °F 30.01 in SSE 4.0 mph 7.0 mph 95% 0.00 in
18:20 59.1 °F 57.7 °F 30.02 in SSE 3.0 mph 6.0 mph 95% 0.00 in
18:25 59.1 °F 57.7 °F 30.02 in SSE 4.0 mph 4.0 mph 95% 0.00 in
18:30 59.1 °F 57.7 °F 30.03 in South 2.0 mph 4.0 mph 95% 0.00 in
18:35 59.2 °F 57.8 °F 30.03 in SSE 4.0 mph 4.0 mph 95% 0.00 in
18:40 59.2 °F 57.8 °F 30.02 in SE 3.0 mph 7.0 mph 95% 0.00 in
18:45 59.1 °F 57.7 °F 30.03 in SE 3.0 mph 6.0 mph 95% 0.00 in
18:47 59.1 °F 57.7 °F 30.03 in SE 5.0 mph 7.0 mph 95% 0.00 in
18:52 59.0 °F 57.6 °F 30.03 in SE 4.0 mph 8.0 mph 95% 0.00 in
18:57 59.0 °F 57.6 °F 30.03 in SSE 4.0 mph 7.0 mph 95% 0.00 in
19:02 59.0 °F 57.6 °F 30.03 in SSE 6.0 mph 7.0 mph 95% 0.00 in
19:07 59.1 °F 57.7 °F 30.03 in SSW 3.0 mph 6.0 mph 95% 0.00 in
19:12 59.0 °F 57.6 °F 30.03 in South 4.0 mph 5.0 mph 95% 0.00 in
19:17 58.9 °F 57.5 °F 30.03 in SSE 3.0 mph 6.0 mph 95% 0.00 in
19:22 58.8 °F 57.4 °F 30.03 in SSE 5.0 mph 7.0 mph 95% 0.00 in
19:27 58.9 °F 57.5 °F 30.03 in SE 5.0 mph 7.0 mph 95% 0.00 in
19:32 59.0 °F 57.6 °F 30.03 in SE 5.0 mph 7.0 mph 95% 0.00 in
19:37 59.0 °F 57.6 °F 30.03 in SSE 4.0 mph 5.0 mph 95% 0.00 in
19:42 59.1 °F 57.7 °F 30.04 in SSE 5.0 mph 6.0 mph 95% 0.00 in
19:47 59.2 °F 57.8 °F 30.04 in SSE 4.0 mph 9.0 mph 95% 0.00 in
19:52 59.2 °F 57.8 °F 30.04 in SSE 4.0 mph 7.0 mph 95% 0.00 in
19:57 59.1 °F 57.7 °F 30.05 in SSE 6.0 mph 6.0 mph 95% 0.00 in
20:02 59.1 °F 57.7 °F 30.05 in South 4.0 mph 7.0 mph 95% 0.00 in
20:07 59.1 °F 57.7 °F 30.05 in SE 4.0 mph 5.0 mph 95% 0.00 in
20:12 59.1 °F 57.7 °F 30.05 in SE 6.0 mph 6.0 mph 95% 0.00 in
20:17 59.1 °F 57.7 °F 30.05 in SE 3.0 mph 4.0 mph 95% 0.00 in
20:22 59.0 °F 57.6 °F 30.05 in ESE 3.0 mph 4.0 mph 95% 0.00 in
20:27 59.0 °F 57.6 °F 30.05 in ESE 4.0 mph 7.0 mph 95% 0.00 in
20:32 58.9 °F 57.5 °F 30.05 in SE 2.0 mph 5.0 mph 95% 0.00 in
20:37 58.8 °F 57.4 °F 30.07 in WNW 3.0 mph 4.0 mph 95% 0.00 in
20:42 58.8 °F 57.4 °F 30.08 in SE 6.0 mph 8.0 mph 95% 0.85 in
20:47 58.3 °F 56.9 °F 30.07 in ESE 6.0 mph 7.0 mph 95% 0.59 in
20:53 57.6 °F 55.9 °F 30.07 in WNW 4.0 mph 4.0 mph 94% 2.59 in
20:58 57.7 °F 56.0 °F 30.07 in WSW 4.0 mph 5.0 mph 94% 2.70 in
21:03 57.3 °F 55.6 °F 30.06 in West 2.0 mph 7.0 mph 94% 0.82 in
21:08 56.8 °F 54.5 °F 30.06 in SE 5.0 mph 7.0 mph 92% 0.11 in
21:13 56.3 °F 54.0 °F 30.06 in SW 2.0 mph 5.0 mph 92% 0.06 in
21:18 56.1 °F 53.8 °F 30.06 in WSW 5.0 mph 5.0 mph 92% 0.04 in
21:23 56.3 °F 54.3 °F 30.06 in WSW 2.0 mph 3.0 mph 93% 0.00 in
21:28 56.6 °F 54.6 °F 30.06 in WSW 2.0 mph 4.0 mph 93% 0.00 in
21:33 56.7 °F 54.7 °F 30.07 in WSW 2.0 mph 3.0 mph 93% 0.00 in
21:38 56.7 °F 55.0 °F 30.06 in SSW 2.0 mph 6.0 mph 94% 0.00 in
21:43 57.0 °F 55.3 °F 30.07 in SW 5.0 mph 6.0 mph 94% 0.00 in
21:48 57.5 °F 56.1 °F 30.07 in SSW 3.0 mph 7.0 mph 95% 0.00 in
21:53 57.9 °F 56.5 °F 30.08 in WSW 1.0 mph 8.0 mph 95% 2.12 in
21:58 58.0 °F 56.6 °F 30.08 in SSW 6.0 mph 6.0 mph 95% 0.21 in
22:03 58.3 °F 56.9 °F 30.08 in South 3.0 mph 8.0 mph 95% 0.50 in
22:08 58.3 °F 56.9 °F 30.07 in SSE 4.0 mph 6.0 mph 95% 0.18 in
22:13 58.3 °F 56.9 °F 30.05 in SE 5.0 mph 6.0 mph 95% 0.07 in
22:18 58.1 °F 56.7 °F 30.02 in SE 8.0 mph 15.0 mph 95% 0.05 in
22:23 57.9 °F 56.5 °F 30.01 in SE 11.0 mph 12.0 mph 95% 0.00 in
22:28 57.8 °F 56.4 °F 30.00 in SE 9.0 mph 14.0 mph 95% 0.00 in
22:33 57.6 °F 56.2 °F 30.01 in SE 7.0 mph 10.0 mph 95% 0.00 in
22:38 57.6 °F 55.9 °F 30.02 in ESE 5.0 mph 8.0 mph 94% 0.00 in
22:43 57.4 °F 55.7 °F 30.02 in SE 7.0 mph 9.0 mph 94% 0.00 in
22:49 57.4 °F 56.0 °F 30.02 in SE 4.0 mph 9.0 mph 95% 0.00 in
22:54 57.3 °F 55.9 °F 30.03 in SSE 6.0 mph 10.0 mph 95% 0.00 in
22:59 57.1 °F 55.7 °F 30.04 in South 8.0 mph 11.0 mph 95% 0.00 in
23:04 56.9 °F 55.5 °F 30.04 in SSW 5.0 mph 9.0 mph 95% 0.00 in
23:09 56.6 °F 55.2 °F 30.05 in SSW 6.0 mph 9.0 mph 95% 0.00 in
23:14 56.4 °F 55.0 °F 30.05 in SSE 5.0 mph 9.0 mph 95% 0.00 in
23:19 56.1 °F 54.7 °F 30.07 in WSW 6.0 mph 7.0 mph 95% 0.00 in
23:24 55.9 °F 54.5 °F 30.09 in WNW 3.0 mph 8.0 mph 95% 0.00 in
23:29 55.9 °F 54.5 °F 30.09 in WNW 7.0 mph 7.0 mph 95% 0.00 in
23:34 55.8 °F 54.4 °F 30.09 in WSW 3.0 mph 3.0 mph 95% 0.00 in
23:39 55.8 °F 54.4 °F 30.09 in WSW 3.0 mph 4.0 mph 95% 0.00 in
23:45 55.9 °F 54.5 °F 30.09 in SSW 3.0 mph 4.0 mph 95% 0.00 in
23:50 55.9 °F 54.5 °F 30.08 in SW 2.0 mph 4.0 mph 95% 0.00 in
23:55 55.8 °F 54.4 °F 30.09 in SSW 2.0 mph 3.0 mph 95% 0.00 in
Compliments of Weather Underground